#timestamp,LO_Frequency,Hit,StdDev 
1594004415.7,286047000.8,N
1594004435.5,286047000.3,N
1594004455.3,286047001.1,N
1594004475.2,286046999.6,N
1594004495.0,286046999.1,N
1594004495.9,286046999.1,N
1594004515.8,286047000.9,N
1594004535.6,286047004.4,Y
1594004555.4,286047002.9,P
1594004575.3,286047004.2,N
1594004595.1,286047004.1,N
1594004615.9,286047002.0,N
1594004635.7,286047002.1,N
1594004655.5,286047002.0,N
1594004675.4,286047004.4,N
1594004695.2,286047002.9,N
1594004715.0,286047002.6,N
1594004715.9,286047002.6,N
1594004735.8,286047000.6,N
1594004755.6,286047001.1,N
1594004775.5,286047001.0,N
1594004795.3,286047001.1,N
1594004815.1,286046999.7,N
1594004835.9,286047000.0,N
1594004855.7,286046999.9,N
1594004875.6,286047000.1,N
1594004895.4,286047002.7,N
1594004915.2,286046998.4,N
1594004935.1,286047000.8,N
1594004936.0,286047000.8,N
1594004955.8,286047000.8,N
1594004975.7,286047001.0,N
1594004995.5,286047000.9,N
1594005015.3,286047002.5,N
1594005035.2,286047001.5,N
1594005055.0,286047002.3,N
1594005055.9,286047002.3,N
1594005075.8,286047002.3,N
1594005095.6,286047000.3,N
1594005115.4,286046999.0,N
1594005135.3,286047000.2,N
1594005155.1,286047002.8,N
1594005175.8,286047002.4,N
1594005195.7,286046999.8,N
1594005215.5,286047000.6,N
1594005235.4,286047000.6,N
1594005255.2,286047000.6,N
1594005275.0,286046999.7,N
1594005275.9,286046999.7,N
1594005295.8,286047003.9,Y
1594005315.6,286047000.2,P
1594005335.5,286047000.1,N
1594005355.3,286047002.7,P
1594005375.1,286047000.2,N
1594005395.9,286047000.6,N
1594005415.7,286047000.1,N
1594005435.6,286047000.8,N
1594005455.4,286046998.1,N
1594005475.2,286046998.1,N
1594005495.1,286047000.9,N
1594005496.0,286047000.9,N
1594005515.8,286047000.3,N
1594005535.7,286046999.9,N
1594005555.5,286047000.3,N
1594005575.3,286047001.2,N
1594005595.2,286046999.4,N
1594005615.0,286047000.9,N
1594005615.9,286047000.9,N
1594005635.8,286047000.8,N
1594005655.6,286047000.4,N
1594005675.4,286047000.9,N
1594005695.3,286047000.3,N
1594005715.1,286047002.7,N
1594005735.8,286047002.8,N
1594005755.7,286046999.7,N
1594005775.5,286047002.1,N
1594005795.4,286047000.8,N
1594005815.2,286047001.0,N
1594005835.0,286047000.8,N
1594005835.9,286047000.8,N
1594005855.8,286046999.7,N
1594005875.6,286046999.7,N
1594005895.5,286047002.4,N
1594005915.3,286047000.2,N
1594005935.1,286047002.5,N
1594005955.9,286047000.0,N
1594005975.7,286046999.7,N
1594005995.6,286047000.6,N
1594006015.4,286047000.4,N
1594006035.2,286047000.8,N
1594006055.1,286047001.2,N
1594006056.0,286047001.2,N
1594006075.8,286047001.5,N
1594006095.7,286047001.7,N
1594006115.5,286047001.5,N
1594006135.3,286047002.0,N
1594006155.2,286047001.6,N
1594006175.0,286046999.9,N
1594006175.9,286046999.9,N
1594006195.8,286046999.7,N
1594006215.6,286047000.0,N
1594006235.4,286047000.5,N
1594006255.3,286047000.7,N
1594006275.1,286047001.1,N
1594006295.9,286047000.0,N
1594006315.7,286046999.7,N
1594006335.5,286047000.1,N
1594006355.4,286047002.8,Y
1594006375.2,286047001.1,P
1594006395.1,286047000.1,N
1594006396.0,286047000.1,N
1594006415.8,286046998.1,Y
1594006465.7,286046998.6,E
1594006475.6,286046999.7,N
1594006495.4,286047001.6,P
1594006515.3,286047002.1,N
1594006535.1,286047002.0,N
1594006555.9,286047001.9,N
1594006575.7,286047002.1,N
1594006595.5,286047001.9,N
1594006615.4,286047002.6,Y
1594006635.2,286047000.9,P
1594006655.1,286047002.2,P
1594006656.0,286047002.2,P
1594006675.8,286047000.9,N
1594006695.6,286047000.9,N
1594006715.5,286047000.6,N
1594006737.2,286047001.9,Y
1594006755.2,286047000.9,P
1594006775.1,286046999.1,P
1594006776.0,286046999.1,N
1594006795.8,286046997.0,N
1594006815.7,286046997.3,N
1594006835.5,286046998.9,N
1594006855.3,286046999.1,N
1594006875.2,286046996.9,N
1594006895.0,286046998.7,N
1594006895.9,286046998.7,N
1594006915.8,286046998.8,N
1594006935.6,286046999.1,N
1594006955.4,286046997.0,N
1594006975.3,286046997.9,N
1594006995.1,286046997.8,N
1594007015.9,286046997.3,N
1594007035.7,286046997.5,N
1594007055.5,286046997.0,N
1594007075.4,286046996.6,N
1594007095.2,286047001.2,N
1594007115.0,286046999.5,N
1594007115.9,286046999.5,N
1594007135.8,286046998.9,N
1594007155.6,286046996.5,N
1594007175.5,286046998.7,N
1594007195.3,286046998.6,N
1594007215.1,286046998.9,N
1594007235.9,286046999.6,N
1594007255.7,286046999.5,N
1594007275.6,286046999.5,N
1594007295.4,286046997.0,N
1594007315.2,286046997.7,N
1594007335.1,286047001.2,N
1594007336.0,286047001.2,N
1594007355.8,286047000.9,N
1594007375.7,286047001.0,N
1594007395.5,286047002.8,N
1594007415.3,286047001.1,N
1594007435.2,286047000.7,N
1594007455.0,286047000.7,N
1594007455.9,286047000.7,N
1594007475.7,286047001.1,N
1594007495.6,286047000.5,N
1594007515.4,286047004.1,N
1594007535.3,286047001.5,N
1594007555.1,286047002.3,N
1594007556.0,286047002.3,N
1594007575.8,286046998.5,N
1594007595.7,286046999.1,N
1594007615.5,286046997.2,N
1594007635.4,286046997.0,N
1594007655.2,286046997.3,N
1594007675.0,286046999.5,N
1594007675.9,286046999.5,N
1594007695.8,286046996.5,N
1594007715.6,286046997.7,N
1594007735.4,286046996.8,N
1594007755.3,286046993.4,Y
1594007775.1,286046996.4,P
1594007795.9,286046996.4,N
1594007815.7,286046995.0,P
1594007835.5,286046997.9,N
1594007855.4,286046998.0,N
1594007875.2,286046995.0,Y
1594007895.1,286046997.5,P
1594007896.0,286046997.5,P
1594007915.8,286046996.6,P
1594007935.6,286046996.9,Y
1594007955.5,286046999.0,P
1594007975.3,286046996.9,P
1594007995.2,286046996.8,P
